KC4YLE Weather Reports


time (UTC)temp
F
wind
direction
speed
knots
gust
knots
rain 1hr
in
rain 24hr
in
rain mn
in
humidity
%
barometer
mb
20260508044524 51 37 0.0 0.0 0.00 0.56 0.49 92 1012.9
20260508044033 51 37 0.0 0.0 0.00 0.56 0.49 92 1012.7
20260508043537 51 37 0.0 0.0 0.00 0.56 0.49 92 1012.7
20260508043042 51 37 0.0 0.0 0.00 0.56 0.49 92 1012.6
20260508042525 51 37 0.0 0.0 0.00 0.56 0.49 92 1012.6
20260508042029 51 37 0.0 0.0 0.00 0.56 0.49 92 1012.7
20260508041533 51 37 0.0 0.0 0.00 0.56 0.49 92 1012.6
20260508041037 52 37 0.0 0.0 0.00 0.56 0.49 92 1012.5
20260508040542 52 37 0.0 0.0 0.00 0.56 0.49 92 1012.5
20260508040027 52 37 0.0 0.0 0.00 0.61 0.49 92 1012.6
20260508035531 52 37 0.0 0.0 0.00 0.61 0.49 92 1012.5
20260508035035 52 37 0.0 0.0 0.00 0.61 0.49 92 1012.5
20260508034542 52 37 0.0 0.0 0.00 0.61 0.49 92 1012.4
20260508034025 53 37 0.0 0.0 0.00 0.61 0.49 92 1012.4
20260508033530 53 37 0.0 0.0 0.00 0.61 0.49 92 1012.3
20260508033034 53 37 0.0 0.0 0.00 0.61 0.49 92 1012.4
20260508032538 53 37 0.0 0.0 0.00 0.61 0.49 92 1012.3
20260508032042 53 37 0.0 0.0 0.00 0.61 0.49 92 1012.3
20260508031547 54 37 0.0 0.0 0.00 0.61 0.49 92 1012.4
20260508031030 54 37 0.0 0.0 0.00 0.61 0.49 92 1012.4
20260508030533 54 37 0.0 0.0 0.00 0.61 0.49 92 1012.4
20260508030037 54 37 0.0 0.0 0.00 0.63 0.49 92 1012.5
20260508025540 54 37 0.0 0.0 0.00 0.63 0.49 92 1012.4
20260508025027 54 37 0.0 0.0 0.00 0.63 0.49 92 1012.4
20260508024551 54 37 0.0 0.0 0.00 0.63 0.49 92 1012.2
20260508024035 54 37 0.0 0.0 0.00 0.63 0.49 92 1012.0
20260508023539 54 37 0.0 0.0 0.00 0.63 0.49 92 1011.9
20260508023043 54 37 0.0 0.0 0.00 0.63 0.49 92 1011.9
20260508022548 54 37 0.0 0.0 0.00 0.63 0.49 92 1012.0
20260508022031 54 37 0.0 0.0 0.00 0.63 0.49 92 1012.0
20260508021535 54 37 0.0 0.0 0.00 0.63 0.49 92 1011.9
20260508021038 54 37 0.0 0.0 0.00 0.63 0.49 92 1011.8
20260508020603 54 37 0.0 0.0 0.00 0.63 0.49 92 1011.9
20260508020027 54 37 0.0 0.0 0.00 0.63 0.49 92 1011.8
20260508015532 55 37 0.0 0.0 0.00 0.63 0.49 92 1011.6
20260508015036 55 37 0.0 0.0 0.00 0.63 0.49 92 1011.4
20260508014601 55 37 0.0 0.0 0.00 0.63 0.49 92 1011.3
20260508014028 55 37 0.0 0.0 0.00 0.63 0.49 92 1011.2
20260508013532 55 37 0.0 0.0 0.00 0.63 0.49 92 1011.0
20260508013037 55 37 0.0 0.0 0.00 0.63 0.49 92 1010.9
20260508012602 55 37 0.0 0.0 0.00 0.63 0.49 92 1010.9
20260508012024 55 37 0.0 0.0 0.00 0.63 0.49 92 1010.7
20260508011530 55 37 0.0 0.0 0.00 0.63 0.49 92 1010.9
20260508011033 55 37 0.0 0.0 0.00 0.63 0.49 92 1010.8
20260508010538 55 37 0.0 0.0 0.00 0.63 0.49 92 1010.8
20260508010042 55 37 0.0 0.0 0.00 0.63 0.49 92 1010.8
20260508005527 55 37 0.0 0.0 0.00 0.63 0.49 92 1010.9
20260508005032 55 37 0.0 0.0 0.00 0.63 0.49 92 1010.9
20260508004537 55 37 0.0 0.0 0.00 0.63 0.49 92 1011.0
20260508004023 55 37 0.0 0.9 0.00 0.63 0.49 92 1011.0
20260508003528 55 37 0.0 0.9 0.00 0.63 0.49 92 1011.0
20260508003032 55 37 0.0 0.0 0.00 0.63 0.49 92 1010.9
20260508002537 55 37 0.0 0.0 0.00 0.63 0.49 92 1010.8
20260508002041 55 37 0.0 0.0 0.00 0.63 0.49 92 1010.8
20260508001526 55 37 0.0 0.0 0.00 0.63 0.49 92 1010.6
20260508001039 55 37 0.0 0.0 0.00 0.63 0.49 92 1010.5
20260508000543 56 37 0.0 0.0 0.00 0.63 0.49 92 1010.4
20260508000026 56 37 0.0 1.7 0.00 0.63 0.49 92 1010.2
20260507235531 56 37 0.0 1.7 0.00 0.63 0.49 92 1010.0
20260507235035 56 348 0.0 0.0 0.00 0.63 0.49 92 1010.1
20260507234523 56 348 0.0 0.0 0.00 0.63 0.49 92 1010.2
20260507234027 56 348 0.0 0.0 0.00 0.63 0.49 92 1010.0
20260507233533 56 348 0.0 0.0 0.00 0.63 0.49 92 1009.8
20260507233036 56 348 0.0 0.0 0.00 0.63 0.49 92 1009.7
20260507232540 56 348 0.0 0.0 0.00 0.63 0.49 92 1009.7
20260507232025 56 348 0.0 0.0 0.00 0.63 0.49 92 1009.7
20260507231549 56 348 0.0 0.0 0.00 0.63 0.49 92 1009.7
20260507231033 56 348 0.0 4.3 0.00 0.63 0.49 92 1009.7
20260507230537 56 348 0.9 4.3 0.00 0.63 0.49 92 1009.6
20260507230035 56 18 0.0 0.0 0.00 0.63 0.49 92 1009.6
20260507225539 56 18 0.0 0.0 0.00 0.63 0.49 92 1009.6
20260507225027 56 18 0.0 0.9 0.00 0.63 0.49 92 1009.7
20260507224532 56 18 0.0 1.7 0.00 0.63 0.49 92 1009.6
20260507224037 56 18 0.0 2.6 0.00 0.63 0.49 92 1009.5
20260507223541 56 18 0.9 2.6 0.00 0.63 0.49 92 1009.4
20260507223025 56 355 0.0 3.5 0.00 0.63 0.49 92 1009.4
20260507222529 56 355 0.0 3.5 0.00 0.63 0.49 92 1009.2
20260507222031 56 44 0.0 3.5 0.00 0.63 0.49 92 1009.3
20260507221536 56 82 0.9 2.6 0.00 0.63 0.49 92 1009.3
20260507221041 56 51 0.0 1.7 0.00 0.63 0.49 92 1009.2
20260507220546 56 51 0.0 0.9 0.00 0.63 0.49 92 1009.2
20260507220028 56 51 0.0 4.3 0.00 0.63 0.49 92 1009.1
20260507215533 56 51 0.9 4.3 0.00 0.63 0.49 92 1009.2
20260507215041 56 204 0.0 3.5 0.00 0.63 0.49 92 1009.2
20260507214525 56 38 0.0 3.5 0.00 0.63 0.49 92 1009.4
20260507214030 56 32 0.0 1.7 0.00 0.63 0.49 92 1009.5
20260507213534 56 28 0.0 1.7 0.00 0.63 0.49 92 1009.5
20260507213039 56 28 0.0 0.0 0.00 0.63 0.49 92 1009.6
20260507212543 56 28 0.0 1.7 0.00 0.63 0.49 92 1009.6
20260507212026 56 28 0.9 1.7 0.00 0.63 0.49 92 1009.6
20260507211531 56 28 0.0 3.5 0.00 0.63 0.49 92 1009.4
20260507211036 56 28 0.0 3.5 0.00 0.63 0.49 92 1009.2
20260507210540 56 59 0.0 2.6 0.00 0.63 0.49 92 1009.1
20260507210028 56 59 0.0 2.6 0.00 0.63 0.49 92 1009.6
20260507205533 56 59 0.0 1.7 0.00 0.63 0.49 92 1009.5
20260507205037 56 59 0.0 1.7 0.00 0.63 0.49 92 1009.4
20260507204602 56 59 0.0 1.7 0.00 0.63 0.49 92 1009.2
20260507204026 56 59 0.0 2.6 0.00 0.63 0.49 92 1009.0
20260507203530 56 59 0.0 5.2 0.00 0.63 0.49 92 1009.2
20260507203055 57 49 0.9 7.0 0.00 0.63 0.49 92 1009.1
20260507202559 57 42 0.0 7.0 0.00 0.63 0.49 92 1008.9
20260507202043 57 92 0.0 3.5 0.00 0.63 0.49 92 1009.1
20260507201526 57 20 0.9 4.3 0.00 0.63 0.49 92 1009.1
20260507201031 57 17 0.9 5.2 0.00 0.63 0.49 92 1009.0
20260507200536 57 29 0.0 5.2 0.00 0.63 0.49 92 1009.0
20260507200039 57 31 0.9 7.0 0.01 0.63 0.49 92 1009.0
20260507195527 57 30 0.9 7.0 0.01 0.63 0.49 92 1009.1
20260507195031 57 54 0.9 4.3 0.01 0.63 0.49 92 1009.0
20260507194537 57 131 0.0 3.5 0.01 0.63 0.49 92 1009.0
20260507194041 57 46 0.0 6.1 0.01 0.63 0.49 92 1009.2
20260507193525 57 311 1.7 6.1 0.01 0.63 0.49 92 1009.2
20260507193029 57 26 0.9 6.1 0.01 0.63 0.49 92 1009.2
20260507192534 57 33 0.0 6.1 0.01 0.63 0.49 92 1009.1
20260507192058 57 59 0.0 4.3 0.01 0.63 0.49 92 1009.2
20260507191541 57 13 0.9 6.1 0.01 0.63 0.49 92 1009.4
20260507191026 57 37 0.0 6.1 0.02 0.63 0.49 92 1009.4
20260507190531 57 186 0.0 2.6 0.03 0.63 0.49 92 1009.1
20260507190036 57 94 0.0 2.6 0.03 0.62 0.48 92 1009.1
20260507185524 57 123 0.0 5.2 0.03 0.62 0.48 92 1009.2
20260507185048 57 123 0.9 5.2 0.04 0.62 0.48 92 1009.4
20260507184550 57 29 0.0 3.5 0.04 0.62 0.48 92 1009.5
20260507184055 57 29 0.0 3.5 0.05 0.62 0.48 92 1009.2
20260507183537 57 38 0.0 5.2 0.05 0.62 0.48 92 1009.2
20260507183042 57 116 0.9 5.2 0.05 0.62 0.48 92 1009.3
20260507182546 57 71 0.9 3.5 0.05 0.62 0.48 92 1009.2
20260507182030 57 40 0.0 3.5 0.05 0.62 0.48 92 1009.3
20260507181534 57 111 0.9 2.6 0.05 0.62 0.48 92 1009.1
20260507181038 56 42 0.0 0.9 0.04 0.61 0.47 92 1009.1
20260507180542 56 42 0.0 3.5 0.03 0.60 0.46 92 1009.1
20260507180026 56 42 0.0 3.5 0.02 0.59 0.45 92 1009.4
20260507175531 56 53 0.0 5.2 0.02 0.59 0.45 91 1009.4
20260507175035 56 32 0.9 5.2 0.01 0.58 0.44 91 1009.2
20260507174524 56 50 0.9 3.5 0.01 0.58 0.44 91 1009.2
20260507174028 57 82 0.0 2.6 0.00 0.57 0.43 91 1009.2
20260507173532 57 82 0.0 4.3 0.00 0.57 0.43 91 1009.3
20260507173037 57 93 0.9 4.3 0.00 0.57 0.43 91 1009.4
20260507172541 57 41 0.9 4.3 0.00 0.57 0.43 92 1009.5
20260507172026 57 69 1.7 8.7 0.00 0.57 0.43 91 1009.2
20260507171549 57 28 2.6 8.7 0.00 0.57 0.43 91 1008.9
20260507171032 57 105 1.7 7.0 0.00 0.57 0.43 91 1008.8
20260507170536 57 26 1.7 7.0 0.00 0.57 0.43 91 1008.7
20260507170041 58 67 3.5 7.0 0.00 0.57 0.43 91 1008.5
20260507165526 58 63 0.0 5.2 0.00 0.57 0.43 92 1008.5
20260507165049 58 63 1.7 5.2 0.00 0.57 0.43 91 1008.7
20260507164538 58 31 0.9 6.1 0.01 0.57 0.43 91 1008.7
20260507164102 58 82 2.6 6.1 0.01 0.57 0.43 91 1008.8
20260507163525 59 29 0.9 13.0 0.01 0.57 0.43 91 1009.2
20260507163028 60 30 3.5 13.0 0.03 0.57 0.43 91 1008.7
20260507162533 61 50 1.7 11.3 0.04 0.57 0.43 92 1008.5
20260507162038 62 43 1.7 6.1 0.04 0.57 0.43 92 1008.9
20260507161542 63 79 2.6 6.1 0.04 0.57 0.43 93 1009.1
20260507161025 64 26 0.0 0.9 0.05 0.57 0.43 94 1008.7
20260507160530 64 26 0.0 2.6 0.05 0.57 0.43 94 1008.9
20260507160054 64 26 0.0 0.0 0.05 0.57 0.43 94 1008.6
20260507155536 64 26 0.0 0.9 0.06 0.57 0.43 93 1009.0
20260507155100 64 26 0.0 3.5 0.06 0.57 0.43 93 1009.1
20260507154543 64 26 0.0 6.1 0.05 0.56 0.42 93 1009.1
20260507154046 65 38 0.0 7.8 0.06 0.56 0.42 93 1008.9
20260507153534 65 32 1.7 7.8 0.07 0.56 0.42 93 1009.3
20260507153038 66 146 0.0 1.7 0.05 0.54 0.40 94 1009.6
20260507152523 66 142 0.0 0.0 0.04 0.53 0.39 94 1009.1
20260507152047 66 142 0.0 0.0 0.05 0.53 0.39 94 1008.7
20260507151529 66 142 0.0 0.0 0.05 0.53 0.39 94 1008.6
20260507151034 66 142 0.0 0.0 0.04 0.52 0.38 94 1008.5
20260507150536 66 142 0.0 0.0 0.05 0.52 0.38 94 1008.8
20260507150041 66 142 0.0 0.0 0.05 0.52 0.38 94 1009.0
20260507145526 66 142 0.0 0.0 0.04 0.51 0.37 94 1009.0
20260507145030 66 142 0.0 0.0 0.05 0.51 0.37 94 1008.8
20260507144534 66 142 0.0 0.0 0.06 0.51 0.37 94 1008.9
20260507144037 66 142 0.0 0.0 0.05 0.50 0.36 94 1008.8
20260507143525 66 142 0.0 0.0 0.05 0.49 0.35 94 1008.6
20260507143029 66 142 0.0 0.0 0.06 0.49 0.35 94 1008.7
20260507142533 66 142 0.0 0.0 0.07 0.49 0.35 94 1008.6
20260507142038 66 142 0.0 0.0 0.07 0.48 0.34 94 1008.5
20260507141602 66 142 0.0 0.0 0.08 0.48 0.34 94 1008.5
20260507141025 66 142 0.0 0.0 0.10 0.48 0.34 94 1008.3
20260507140529 66 142 0.0 0.0 0.11 0.47 0.33 94 1008.4
20260507140052 66 142 0.0 0.9 0.12 0.47 0.33 94 1008.5
20260507135534 66 142 0.0 0.0 0.14 0.47 0.33 94 1008.6
20260507135038 66 142 0.0 0.0 0.14 0.46 0.32 94 1008.8
20260507134602 66 142 0.0 0.0 0.13 0.45 0.31 94 1009.1
20260507134025 65 142 0.0 0.0 0.14 0.45 0.31 94 1009.2
20260507133529 65 142 0.0 0.0 0.14 0.44 0.30 94 1009.3
20260507133052 65 142 0.0 0.0 0.13 0.43 0.29 93 1009.4
20260507132539 65 142 0.0 0.0 0.13 0.42 0.28 93 1009.6
20260507132023 65 142 0.0 1.7 0.12 0.41 0.27 93 1009.7
20260507131547 65 142 0.0 1.7 0.11 0.40 0.26 93 1009.8
20260507131029 65 142 0.0 0.0 0.09 0.38 0.24 93 1009.8
20260507130534 65 142 0.0 0.0 0.07 0.36 0.22 93 1009.7
20260507130037 65 142 0.0 0.0 0.05 0.34 0.20 93 1009.5
20260507125541 65 142 0.0 0.0 0.04 0.33 0.19 93 1009.5
20260507125025 65 142 0.0 0.0 0.03 0.32 0.18 93 1009.4
20260507124530 65 142 0.0 0.0 0.03 0.32 0.18 93 1009.2
20260507124054 65 142 0.0 0.0 0.02 0.31 0.17 93 1009.1
20260507123537 65 142 0.0 0.0 0.01 0.30 0.16 93 1009.3
20260507123041 65 142 0.0 0.0 0.01 0.30 0.16 93 1009.3
20260507122528 65 142 0.0 0.0 0.00 0.29 0.15 93 1009.3
20260507122032 65 142 0.0 0.0 0.00 0.29 0.15 93 1009.2
20260507121536 65 142 0.0 0.0 0.00 0.29 0.15 93 1009.2
20260507121040 65 142 0.0 0.0 0.01 0.29 0.15 93 1009.3
20260507120523 65 142 0.0 0.0 0.01 0.29 0.15 93 1009.2
20260507120027 65 142 0.0 0.0 0.01 0.29 0.15 93 1009.2
20260507115532 65 142 0.0 0.0 0.01 0.29 0.15 93 1009.1
20260507115056 65 142 0.0 0.0 0.01 0.29 0.15 93 1009.1
20260507114539 64 142 0.0 0.0 0.01 0.29 0.15 93 1009.2
20260507114023 64 142 0.0 0.0 0.01 0.29 0.15 93 1009.1
20260507113528 64 142 0.0 0.0 0.01 0.29 0.15 93 1009.0
20260507113031 64 142 0.0 0.0 0.01 0.29 0.15 93 1009.1
20260507112555 64 142 0.0 0.0 0.01 0.29 0.15 93 1009.4
20260507112042 64 142 0.0 0.0 0.01 0.29 0.15 93 1009.5
20260507111525 64 142 0.0 0.0 0.01 0.29 0.15 93 1009.4
20260507111028 64 142 0.0 0.0 0.00 0.28 0.14 93 1009.5
20260507110534 64 142 0.0 0.0 0.00 0.28 0.14 93 1009.5
20260507110057 64 142 0.0 0.0 0.01 0.28 0.14 93 1009.2
20260507105542 64 142 0.0 0.0 0.01 0.28 0.14 93 1009.2
20260507105045 64 142 0.0 0.0 0.01 0.28 0.14 93 1009.2
20260507104528 64 142 0.0 0.0 0.01 0.28 0.14 93 1009.3
20260507104033 64 142 0.0 0.0 0.01 0.28 0.14 93 1009.4
20260507103536 64 142 0.0 0.0 0.02 0.28 0.14 93 1009.3
20260507103041 64 142 0.0 0.0 0.02 0.28 0.14 93 1009.1
20260507102524 64 142 0.0 0.9 0.02 0.28 0.14 93 1009.1
20260507102032 64 142 0.0 0.0 0.02 0.28 0.14 93 1008.9
20260507101537 64 142 0.0 0.0 0.02 0.28 0.14 93 1008.9
20260507101041 64 142 0.0 0.0 0.02 0.28 0.14 93 1009.2
20260507100525 64 142 0.0 0.0 0.02 0.28 0.14 93 1009.3
20260507100050 64 142 0.0 0.0 0.01 0.27 0.13 93 1009.2
20260507095533 64 142 0.0 0.0 0.01 0.27 0.13 93 1009.0
20260507095036 64 142 0.0 0.0 0.01 0.27 0.13 93 1009.0
20260507094540 64 142 0.0 0.0 0.01 0.27 0.13 93 1009.1
20260507094024 64 142 0.0 0.0 0.01 0.27 0.13 93 1009.3
20260507093528 64 142 0.0 0.9 0.00 0.26 0.12 93 1009.4
20260507093033 64 142 0.0 0.9 0.00 0.26 0.12 93 1009.1
20260507092537 64 142 0.0 0.0 0.01 0.26 0.12 92 1009.0
20260507092024 64 142 0.0 0.0 0.01 0.26 0.12 92 1009.0
20260507091549 64 142 0.0 0.0 0.02 0.26 0.12 92 1009.1
20260507091032 64 142 0.0 0.0 0.02 0.26 0.12 92 1008.9
20260507090556 64 142 0.0 0.0 0.02 0.26 0.12 92 1008.9
20260507090040 64 142 0.0 0.0 0.02 0.26 0.12 92 1008.9
20260507085523 64 142 0.0 0.0 0.02 0.26 0.12 92 1008.9
20260507085048 64 142 0.0 0.0 0.02 0.26 0.12 92 1008.9
20260507084531 64 142 0.0 0.0 0.02 0.26 0.12 92 1009.1
20260507084034 64 142 0.0 0.9 0.03 0.26 0.12 92 1009.3
20260507083537 64 142 0.0 1.7 0.04 0.26 0.12 92 1009.4
20260507083040 64 142 0.0 1.7 0.04 0.26 0.12 92 1009.4
20260507082523 64 142 0.0 0.0 0.03 0.25 0.11 92 1009.5
20260507082027 64 142 0.0 0.0 0.03 0.25 0.11 92 1009.6
20260507081535 64 142 0.0 0.0 0.02 0.24 0.10 92 1009.7
20260507081039 64 142 0.0 0.0 0.02 0.24 0.10 92 1009.5
20260507080523 64 142 0.0 0.0 0.02 0.24 0.10 92 1009.2
20260507080027 64 142 0.0 0.0 0.02 0.24 0.10 92 1009.4
20260507075530 64 142 0.0 0.0 0.02 0.24 0.10 92 1009.2
20260507075034 64 142 0.0 0.0 0.02 0.24 0.10 92 1009.4
20260507074539 64 142 0.0 1.7 0.02 0.24 0.10 92 1009.6
20260507074023 64 142 0.0 1.7 0.01 0.23 0.09 92 1009.6
20260507073527 65 142 0.0 0.0 0.00 0.22 0.08 92 1009.6
20260507073031 65 142 0.0 0.9 0.00 0.22 0.08 92 1009.7
20260507072555 65 142 0.0 0.9 0.00 0.22 0.08 92 1009.6
20260507072037 65 142 0.0 0.0 0.00 0.22 0.08 92 1009.6
20260507071525 65 142 0.0 0.0 0.02 0.22 0.08 92 1009.4
20260507071049 65 142 0.0 0.9 0.04 0.22 0.08 92 1009.6
20260507070532 65 142 0.0 0.0 0.05 0.22 0.08 92 1009.7
20260507070055 65 142 0.0 1.7 0.08 0.22 0.08 92 1009.7
20260507065558 65 142 0.0 1.7 0.08 0.22 0.08 92 1009.6
20260507065041 65 142 0.0 0.9 0.09 0.22 0.08 92 1010.0
20260507064544 65 142 0.0 1.7 0.10 0.22 0.08 92 1010.1
20260507064027 65 142 0.0 1.7 0.12 0.22 0.08 92 1009.8
20260507063531 65 142 0.0 2.6 0.12 0.22 0.08 92 1010.3
20260507063034 65 252 0.0 2.6 0.12 0.22 0.08 92 1010.8
20260507062538 65 319 0.0 0.9 0.12 0.22 0.08 92 1010.9
20260507062102 65 319 0.0 3.5 0.12 0.22 0.08 92 1011.0
20260507061524 65 321 0.9 3.5 0.10 0.20 0.06 92 1011.1
20260507061028 65 288 0.0 0.0 0.08 0.18 0.04 91 1011.0
20260507060532 65 288 0.0 0.9 0.07 0.17 0.03 91 1010.8
20260507060041 65 288 0.0 0.9 0.04 0.14 0.14 91 1010.6
20260507055524 65 288 0.0 0.9 0.04 0.14 0.14 91 1010.6
20260507055028 65 288 0.0 0.9 0.03 0.13 0.13 91 1010.9
20260507054533 65 288 0.0 0.0 0.02 0.12 0.12 91 1010.9
20260507054037 65 288 0.0 0.0 0.00 0.10 0.10 91 1010.9
20260507053541 65 288 0.0 0.0 0.00 0.10 0.10 91 1010.9
20260507053025 65 288 0.0 0.0 0.01 0.10 0.10 91 1010.9
20260507052528 66 288 0.0 0.0 0.01 0.10 0.10 91 1010.9
20260507052053 66 288 0.0 0.0 0.01 0.10 0.10 91 1010.9
20260507051536 66 288 0.0 0.0 0.01 0.10 0.10 91 1011.0
20260507051040 66 288 0.0 0.0 0.01 0.10 0.10 91 1010.8
20260507050528 66 288 0.0 0.0 0.02 0.10 0.10 91 1011.3
20260507050033 66 288 0.0 0.0 0.03 0.10 0.10 91 1011.5
20260507045537 66 288 0.0 0.0 0.04 0.10 0.10 91 1011.2
20260507045103 66 288 0.0 0.0 0.05 0.10 0.10 91 1011.0